When you browse on this site, cookies collect data to enhance your experience and personalize the content and advertising you see.
Visit our Privacy Policy to learn more. By continuing to use the site, you agree to this use of cookies and data.
  • In Latvia
  • List of Countries
  • For 7 days
  • Water Temperature
  • Weather Map
  • Weather Widgets
  • user-avatar
    Login

    Hourly Weather Schukino

    Today, 25 February, Tuesday

    Time Temperature Precipitation Wind Pressure Humidity
    00:00 -2°C° 0 mm 3 mps 735 mmHg 77%
    01:00 -2°C° 0 mm 3 mps 736 mmHg 78%
    02:00 -2°C° 0 mm 3 mps 736 mmHg 80%
    03:00 -2°C° 0 mm 3 mps 735 mmHg 82%
    04:00 -2°C° 0 mm 2 mps 735 mmHg 83%
    05:00 -3°C° 0 mm 2 mps 735 mmHg 85%
    06:00 -3°C° 0 mm 2 mps 735 mmHg 85%
    07:00 -3°C° 0 mm 2 mps 735 mmHg 85%
    08:00 -3°C° 0 mm 2 mps 735 mmHg 85%
    09:00 -2°C° 0 mm 2 mps 735 mmHg 78%
    10:00 -1°C° 0 mm 2 mps 735 mmHg 70%
    11:00 +1°C° 0 mm 2 mps 735 mmHg 63%
    12:00 +2°C° 0 mm 2 mps 734 mmHg 59%
    13:00 +2°C° 0 mm 2 mps 734 mmHg 56%
    14:00 +3°C° 0 mm 2 mps 734 mmHg 53%
    15:00 +2°C° 0 mm 2 mps 733 mmHg 57%
    16:00 +2°C° 0 mm 2 mps 732 mmHg 60%
    17:00 +1°C° 0 mm 2 mps 732 mmHg 64%
    18:00 -1°C° 0.1 mm 3 mps 731 mmHg 73%
    19:00 -1°C° 0.1 mm 3 mps 731 mmHg 83%
    20:00 -2°C° 0.1 mm 4 mps 730 mmHg 92%
    21:00 -2°C° 0.6 mm 4 mps 729 mmHg 94%
    22:00 -2°C° 0.6 mm 4 mps 729 mmHg 95%
    23:00 -1°C° 0.6 mm 4 mps 728 mmHg 96%

    Tomorrow, 26 February, Wednesday

    Time Temperature Precipitation Wind Pressure Humidity
    00:00 -1°C° 0.1 mm 4 mps 727 mmHg 96%
    01:00 0°C° 0.1 mm 4 mps 727 mmHg 95%
    02:00 0°C° 0.1 mm 4 mps 726 mmHg 95%
    03:00 +1°C° 0 mm 3 mps 726 mmHg 95%
    04:00 +1°C° 0 mm 2 mps 725 mmHg 95%
    05:00 +1°C° 0 mm 2 mps 725 mmHg 95%
    06:00 -1°C° 0 mm 2 mps 725 mmHg 96%
    07:00 -1°C° 0 mm 2 mps 725 mmHg 96%
    08:00 -1°C° 0 mm 2 mps 725 mmHg 96%
    09:00 +1°C° 0 mm 2 mps 725 mmHg 90%
    10:00 +2°C° 0 mm 2 mps 725 mmHg 84%
    11:00 +3°C° 0 mm 2 mps 726 mmHg 77%
    12:00 +4°C° 0 mm 2 mps 726 mmHg 74%
    13:00 +5°C° 0 mm 2 mps 726 mmHg 71%
    14:00 +5°C° 0 mm 2 mps 726 mmHg 68%
    15:00 +4°C° 0 mm 2 mps 726 mmHg 74%
    16:00 +3°C° 0 mm 2 mps 726 mmHg 80%
    17:00 +3°C° 0 mm 1 mps 726 mmHg 86%
    18:00 +3°C° 0 mm 1 mps 726 mmHg 87%
    19:00 +1°C° 0 mm 2 mps 726 mmHg 89%
    20:00 +1°C° 0 mm 2 mps 727 mmHg 91%
    21:00 +1°C° 0 mm 2 mps 726 mmHg 91%
    22:00 +1°C° 0 mm 2 mps 726 mmHg 90%
    23:00 +1°C° 0 mm 2 mps 726 mmHg 90%

    Day after tomorrow, 27 February, Thursday

    Time Temperature Precipitation Wind Pressure Humidity
    00:00 +1°C° 0 mm 2 mps 726 mmHg 91%
    01:00 +1°C° 0 mm 2 mps 726 mmHg 92%
    02:00 -1°C° 0 mm 2 mps 726 mmHg 93%
    03:00 +1°C° 0 mm 1 mps 726 mmHg 94%
    04:00 +1°C° 0 mm 1 mps 725 mmHg 95%
    05:00 +1°C° 0 mm 1 mps 725 mmHg 95%
    06:00 +1°C° 0.4 mm 1 mps 725 mmHg 96%
    07:00 +1°C° 0.4 mm 1 mps 725 mmHg 97%
    08:00 +2°C° 0.4 mm 1 mps 725 mmHg 98%
    09:00 +2°C° 0.8 mm 1 mps 725 mmHg 96%
    10:00 +1°C° 0.8 mm 2 mps 725 mmHg 95%
    11:00 +1°C° 0.8 mm 2 mps 725 mmHg 93%
    12:00 +1°C° 0.1 mm 2 mps 725 mmHg 87%
    13:00 +2°C° 0.1 mm 2 mps 725 mmHg 81%
    14:00 +3°C° 0.1 mm 2 mps 725 mmHg 75%
    15:00 +2°C° 0.1 mm 2 mps 725 mmHg 77%
    16:00 +2°C° 0.1 mm 2 mps 725 mmHg 78%
    17:00 +1°C° 0.1 mm 2 mps 725 mmHg 80%
    18:00 -1°C° 0 mm 3 mps 725 mmHg 82%
    19:00 -2°C° 0 mm 3 mps 725 mmHg 83%
    20:00 -2°C° 0 mm 3 mps 726 mmHg 85%
    21:00 -2°C° 0 mm 3 mps 726 mmHg 85%
    22:00 -4°C° 0 mm 4 mps 726 mmHg 85%
    23:00 -4°C° 0 mm 4 mps 725 mmHg 85%

    28 February, Friday

    Time Temperature Precipitation Wind Pressure Humidity
    00:00 -4°C° 0 mm 4 mps 725 mmHg 85%
    01:00 -4°C° 0 mm 4 mps 725 mmHg 85%
    02:00 -4°C° 0 mm 4 mps 725 mmHg 85%
    03:00 -4°C° 0.1 mm 4 mps 726 mmHg 86%
    04:00 -4°C° 0.1 mm 4 mps 726 mmHg 88%
    05:00 -4°C° 0.1 mm 4 mps 726 mmHg 89%
    06:00 -4°C° 0.2 mm 4 mps 726 mmHg 90%
    07:00 -3°C° 0.2 mm 4 mps 727 mmHg 92%
    08:00 -3°C° 0.2 mm 4 mps 727 mmHg 93%
    09:00 -3°C° 0.1 mm 4 mps 727 mmHg 87%
    10:00 -2°C° 0.1 mm 4 mps 728 mmHg 81%
    11:00 -2°C° 0.1 mm 4 mps 728 mmHg 76%
    12:00 -2°C° 0 mm 4 mps 729 mmHg 75%
    13:00 -2°C° 0 mm 4 mps 729 mmHg 75%
    14:00 -2°C° 0 mm 4 mps 730 mmHg 75%
    15:00 -2°C° 0 mm 4 mps 730 mmHg 75%
    16:00 -2°C° 0 mm 3 mps 731 mmHg 76%
    17:00 -2°C° 0 mm 3 mps 731 mmHg 76%
    18:00 -3°C° 0 mm 2 mps 732 mmHg 79%
    19:00 -3°C° 0 mm 2 mps 732 mmHg 82%
    20:00 -4°C° 0 mm 2 mps 733 mmHg 84%
    21:00 -4°C° 0 mm 2 mps 733 mmHg 85%
    22:00 -4°C° 0 mm 2 mps 733 mmHg 86%
    23:00 -4°C° 0 mm 2 mps 734 mmHg 87%

    29 February, Saturday

    Time Temperature Precipitation Wind Pressure Humidity
    00:00 -4°C° 0 mm 2 mps 734 mmHg 87%
    01:00 -4°C° 0 mm 2 mps 734 mmHg 86%
    02:00 -4°C° 0 mm 2 mps 735 mmHg 86%
    03:00 -4°C° 0 mm 2 mps 735 mmHg 85%
    04:00 -5°C° 0 mm 2 mps 735 mmHg 84%
    05:00 -5°C° 0 mm 2 mps 735 mmHg 83%
    06:00 -5°C° 0 mm 2 mps 735 mmHg 80%
    07:00 -6°C° 0 mm 3 mps 736 mmHg 78%
    08:00 -6°C° 0 mm 3 mps 736 mmHg 75%
    09:00 -5°C° 0 mm 3 mps 736 mmHg 73%
    10:00 -4°C° 0 mm 3 mps 736 mmHg 71%
    11:00 -2°C° 0 mm 3 mps 737 mmHg 69%
    12:00 -2°C° 0.1 mm 3 mps 737 mmHg 68%
    13:00 -1°C° 0.1 mm 3 mps 737 mmHg 68%
    14:00 -1°C° 0.1 mm 3 mps 737 mmHg 67%
    15:00 -2°C° 0.1 mm 3 mps 737 mmHg 70%
    16:00 -2°C° 0.1 mm 2 mps 738 mmHg 73%
    17:00 -3°C° 0.1 mm 2 mps 738 mmHg 76%
    18:00 -3°C° 0 mm 2 mps 738 mmHg 78%
    19:00 -2°C° 0 mm 1 mps 739 mmHg 79%
    20:00 -3°C° 0 mm 1 mps 739 mmHg 81%
    21:00 -3°C° 0 mm 1 mps 739 mmHg 83%
    22:00 -5°C° 0 mm 2 mps 739 mmHg 85%
    23:00 -5°C° 0 mm 2 mps 740 mmHg 87%

    1 March, Sunday

    Time Temperature Precipitation Wind Pressure Humidity
    00:00 -5°C° 0 mm 2 mps 740 mmHg 88%
    01:00 -5°C° 0 mm 2 mps 740 mmHg 89%
    02:00 -5°C° 0 mm 2 mps 740 mmHg 90%
    03:00 -5°C° 0 mm 2 mps 740 mmHg 89%
    04:00 -5°C° 0 mm 2 mps 740 mmHg 89%
    05:00 -5°C° 0 mm 2 mps 740 mmHg 88%
    06:00 -5°C° 0 mm 2 mps 740 mmHg 87%
    07:00 -5°C° 0 mm 2 mps 740 mmHg 85%
    08:00 -6°C° 0 mm 3 mps 740 mmHg 83%
    09:00 -5°C° 0 mm 3 mps 740 mmHg 77%
    10:00 -4°C° 0 mm 3 mps 740 mmHg 71%
    11:00 -2°C° 0 mm 3 mps 740 mmHg 66%
    12:00 -2°C° 0 mm 4 mps 739 mmHg 63%
    13:00 -2°C° 0 mm 4 mps 739 mmHg 60%
    14:00 -1°C° 0 mm 4 mps 738 mmHg 57%
    15:00 -1°C° 0 mm 3 mps 738 mmHg 58%
    16:00 -1°C° 0 mm 3 mps 737 mmHg 59%
    17:00 -1°C° 0 mm 3 mps 737 mmHg 60%
    18:00 -2°C° 0.4 mm 3 mps 737 mmHg 72%
    19:00 -3°C° 0.4 mm 4 mps 736 mmHg 83%
    20:00 -4°C° 0.4 mm 4 mps 736 mmHg 94%
    21:00 -3°C° 0.4 mm 4 mps 736 mmHg 95%
    22:00 -3°C° 0.4 mm 4 mps 735 mmHg 95%
    23:00 -2°C° 0.4 mm 4 mps 735 mmHg 96%
    Show more